Regional Weather Roundup
Issued by NWS Grand Forks, ND

Home | Current Version | Previous Version | Graphics & Text | Print | Product List | Glossary On
Versions: 1 2 3 4 5 6 7 8 9 10 11 12 13 14 15 16 17 18 19 20 21 22 23 24 25 26 27 28 29 30 31 32 33 34 35 36 37 38 39 40 41 42 43 44 45 46 47 48 49 50
966
ASUS43 KFGF 220231
RWRFGF
PRAIRIE TO PINES  WEATHER ROUNDUP
NATIONAL WEATHER SERVICE EASTERN NORTH DAKOTA/GRAND FORKS ND
900 PM CDT THU SEP 21 2017

 **SATELLITE DATA USED TO AUGMENT SKY COVER AT AUTOMATED STATIONS**
 *****  WEATHER ACROSS EASTERN NORTH DAKOTA  *****

CITY           SKY/WX    TMP DP  RH WIND       PRES   REMARKS
GRAND FORKS    FAIR      70  56  61 SE13      29.70S
GRAND FRKS AFB FAIR      68  55  62 SE10      29.70S
DEVILS LAKE    CLOUDY    64  54  69 N9        29.74R
FARGO          MOCLDY    75  64  68 SE8       29.70R
WAHPETON ARPT  FAIR      73  64  73 SE6       29.71R
$$

 ***** WEATHER ACROSS CENTRAL AND WESTERN NORTH DAKOTA  *****

CITY           SKY/WX    TMP DP  RH WIND       PRES   REMARKS
BISMARCK       FAIR      66  46  48 N13       29.76R
MINOT          FAIR      57  41  55 NW13      29.81R
JAMESTOWN      FAIR      69  60  73 SE7       29.69R
MINOT AFB      FAIR      54  42  63 NW9       29.80R
GARRISON         N/A     52  47  83 N10       29.80R
WILLISTON      FAIR      54  40  59 N6        29.88R
DICKINSON      FAIR      54  39  57 N12       29.81R
HETTINGER      FAIR      57  39  51 N12       29.80R
$$

 *****  OTHER AIRPORT OBSERVATIONS IN OUR AREA  *****

CITY           SKY/WX    TMP DP  RH WIND       PRES   REMARKS
WALHALLA       FAIR     N/A N/A N/A NW10      29.74R
GRAFTON AIRPOR FAIR      66  54  63 SE8       29.73R
VALLEY CITY AR FAIR      72  70  94 SE8       29.72R
CANDO          CLOUDY    61  54  77 N8        29.79R
CAVALIER APRT  CLOUDY    68  52  56 SE3       29.71S
GWINNER        CLEAR     66  66 100 CALM      29.70R
SHEYENNE NWR     N/A     69  67  94 E5        29.95S
ROLLA          FAIR      54  54 100 N10       29.81R
 ***** THE ABOVE OBSERVATIONS ARE NON NWS ARE NOT QUALITY
       CONTROLLED AND MAY MIS-REPORT RAIN FOR SNOW...
$$

  *****  WEATHER ACROSS NORTHERN MINNESOTA  *****

CITY           SKY/WX    TMP DP  RH WIND       PRES   REMARKS
FLAG ISLAND    CLOUDY    66  52  59 SE8       29.78S
WARROAD        CLOUDY    66  55  68 CALM      29.79R
ROSEAU         FAIR      66  54  63 SE5       29.78R
HALLOCK          N/A     72  50  46 SE8       29.72S
THF RVR FALLS  CLOUDY    68  53  58 E8        29.76S
BAUDETTE       MOCLDY    66  51  58 SE7       29.79R
WASKISH        FAIR      64  55  72 SE7       29.79S
CROOKSTON      FAIR      70  55  60 SE8       29.74R
STEPHEN NDAWN    N/A     68  52  56 SE5         N/A
GREENBUSH NDAW   N/A     66  52  59 SE5         N/A
$$
  *****  WEATHER ACROSS CENTRAL AND WEST MINNESOTA  *****

CITY           SKY/WX    TMP DP  RH WIND       PRES   REMARKS
FOSSTON        FAIR      66  55  68 SE8G16    29.76S
BEMIDJI        FAIR      67  54  63 SE8       29.80R
PARK RAPIDS    MOCLDY    70  60  70 SE7       29.79R
ELBOW LAKE     CLOUDY    74  69  83 E9G17     29.74R
WADENA         FAIR      70  63  78 SE8       29.78R
DETROIT LAKES  FAIR      70  63  78 SE9       29.77R
MOORHEAD       FAIR      73  64  73 SE5       29.72R
FERGUS FALLS   FAIR      73  66  78 SE14      29.72S
MORRIS MN      FAIR      75  70  83 SE12      29.73R
STAPLES        MOCLDY    72  64  78 SE5       29.79S
$$
  *****  WEATHER ELSEWHERE ACROSS MINNESOTA  *****

CITY           SKY/WX    TMP DP  RH WIND       PRES   REMARKS
DULUTH         CLOUDY    59  55  87 E13       29.91S
INTRNTL FALLS  MOCLDY    64  51  62 SE9       29.82S
ELY            FAIR      59  50  72 SE7       29.92R
CLOQUET        CLOUDY    61  55  82 E12       29.89S
WHEATON        FAIR      72  66  83 SE7       29.72R
BRAINERD       FAIR      71  65  81 SE9       29.81S
HIBBING        CLOUDY    60  53  77 SE9       29.90R
ALEXANDRIA     FAIR      73  68  84 SE12      29.78R
SAINT CLOUD    FAIR      74  69  85 E8        29.79R
MINNEAPOLIS    FAIR      79  69  71 SE14      29.80R
$$

  *****  WEATHER ACROSS SOUTH DAKOTA  *****

CITY           SKY/WX    TMP DP  RH WIND       PRES   REMARKS
SIOUX FALLS    FAIR      80  73  79 SE9       29.71R
BROOKINGS      FAIR      75  69  81 SE9       29.72S
WATERTOWN      FAIR      75  68  78 SE7       29.71R
HURON          FAIR      78  67  68 SE10      29.65S
SISSETON         N/A     76  71  85 S6        29.70R
ABERDEEN       FAIR      69  65  86 E7        29.68R
MITCHELL       FAIR      80  69  69 SE7       29.65R
PIERRE         FAIR      74  54  49 E7        29.62R
MOBRIDGE       FAIR      71  52  50 N18G25    29.67R
RAPID CITY     CLEAR     64  37  36 N17       29.73R
$$

  *****  SOME WEATHER IN NEARBY STATES *****

CITY           SKY/WX    TMP DP  RH WIND       PRES   REMARKS
GLASGOW MT     FAIR      53  33  46 NW6       29.91R
GREAT FALLS MT FAIR      49  30  48 NE8       29.92R
CHEYENNE WY    FAIR      67  24  19 E3        29.74S
SCOTTSBLUFF NE FAIR      68  42  38 E9        29.62S
OMAHA NE       FAIR      86  72  62 S15       29.77R HX  92
DES MOINES IA  FAIR      82  69  64 SE13      29.84R
DAVENPORT IA   FAIR      77  70  79 SE8       29.97R
CHICAGO IL     MOCLDY    81  69  67 SE7       30.00R
EAU CLAIRE WI  FAIR      75  66  73 SE9       29.87F
LA CROSSE WI   CLEAR     81  63  54 SE12      29.89R
$$

  *****  SOME NATIONAL WEATHER *****

CITY           SKY/WX    TMP DP  RH WIND       PRES   REMARKS
LA GUARDIA NY  MOCLDY    75  64  68 NE7       30.02R
RALEIGH NC     FAIR      69  67  93 CALM      30.06R
ATLANTA GA     MOCLDY    81  65  58 N7        30.05R
NEW ORLEANS LA FAIR      83  75  77 NE3       29.97R HX  90
OKLAHOMA CITY  FAIR      82  70  66 SE14G26   29.87R
ALBUQUERQUE NM FAIR      81  32  17 SW10      29.90R
SALT LAKE CITY RAIN      46  42  86 NW18      29.82R
LOS ANGELES CA FAIR      66  57  72 SW8       29.81S
BOISE ID       MOCLDY    54  35  48 N7        29.80S
SEATTLE WA     MOCLDY    60  45  57 NE7       29.98R
$$

*** WEATHER ACROSS MANITOBA...SASKATCHEWAN AND ONTARIO ***
                ***ONTARIO***

CITY           SKY/WX    TMP DP  RH WIND       PRES   REMARKS
GERALDTON      PTCLDY    50  46  87 SE3       30.01F
THUNDER BAY    CLEAR     52  50  93 CALM      29.98F
SIOUX LOOKOUT  PTCLDY    61  48  63 SE5       29.84F
TORONTO        CLEAR     72  61  68 S3        30.13R
BIG TROUT LK   CLOUDY    59  48  67 S8        29.87F
PICKLE LAKE    PTCLDY    55  46  71 SE9       29.90F
DRYDEN         PTCLDY    61  50  67 SE10      29.82F
KENORA         MOCLDY    64  50  59 S10       29.81R
$$
                *** MANITOBA***

CITY           SKY/WX    TMP DP  RH WIND       PRES   REMARKS
BRANDON        MOCLDY    52  52 100 SE5       29.81R
DAUPHIN        PTCLDY    50  46  87 W7        29.79R
ISLAND LAKE    CLOUDY    57  52  82 S9        29.80R
PILOT MOUND      N/A     59  50  72 NW7         N/A
THE PAS        PTCLDY    50  39  66 W6        29.76R
THOMPSON       MOCLDY    48  45  87 N7        29.70
WINNIPEG       MOCLDY    61  52  72 NE7       29.75R
LYNN LAKE      CLOUDY    41  41 100 N7        29.75R FOG
CHURCHILL      CLOUDY    46  45  93 E15       29.70R
GILLAM         CLEAR     52  45  76 VRB2      29.69R
$$
                ***SASKATCHEWAN***

CITY           SKY/WX    TMP DP  RH WIND       PRES   REMARKS
ESTEVAN        MOCLDY    48  39  71 NW8       29.88R
KINDERSLEY     LGT RAIN  41  39  93 NW5       29.93R
LLOYDMINSTER   CLOUDY    41  37  87 N10       29.94R
PRINCE ALBERT  MOCLDY    43  41  93 W7        29.86R
REGINA         PTCLDY    48  34  57 NW12      29.90R
YORKTON        CLEAR     50  39  66 W9        29.85R
N. BATTLEFORD  MOCLDY    41  36  81 NW6       29.91R
LA RONGE       CLOUDY    43  41  93 NW7       29.85R
SASKATOON      MOCLDY    45  43  93 W8        29.89R
SWIFT CURRENT  CLEAR     39  28  65 W10       29.92R
$$
NOTE: THESE ARE AUTOMATED STATIONS WITH LIMITED QUALITY CONTROL
      "FAIR" INDICATES FEW OR NO CLOUDS BELOW 12,000 FEET WITH NO
      SIGNIFICANT WEATHER AND/OR OBSTRUCTIONS TO VISIBILITY.
      SKY/WX - SKY CONDITION AND SIGNIFICANT WEATHER.
      TMP - AIR TEMPERATURE.    DP   - DEWPOINT TEMPERATURE.
      RH  - RELATIVE HUMIDITY.  PRES - PRESSURE.
      HX  - HEAT INDEX.         WCI  - WIND CHILL INDEX.
$




USA.gov is the U.S. government's official web portal to all federal, state and local government web resources and services.